User: anonymous   Login
Location: Unspecified
(0.0000°N, 0.0000°E)
Time: 06:46:01
(UTC+00:00)
Language:

AAUSAT3 - Orbit

View from above orbital plane
View from above orbital plane
View from above satellite
View from above satellite

Ground track
Ground track

The orbit data is extracted from the following two-line orbital elements,

1 39087U 13009B   17087.79306218 +.00000125 +00000-0 +58608-4 0  9998
2 39087 098.5588 293.7198 0012618 174.0555 186.0765 14.35477219213985
Epoch (UTC): 28 March 2017 19:02:00
Eccentricity: 0.0012618
inclination: 98.5588°
perigee height: 764 km
apogee height: 782 km
right ascension of ascending node: 293.7198°
argument of perigee: 174.0555°
revolutions per day: 14.35477219
mean anomaly at epoch: 186.0765°
orbit number at epoch: 21398

The dashed part of the orbit path shows where the satellite is in the earth's shadow,  

DLR